{"data":{"norad_id":59717,"epoch":"2026-09-21T17:22:17.939136Z","epoch_age_seconds":65625,"freshness":"FRESH","line1":"1 59717U 24088K   26264.72381874 -.00000014  00000+0  47397-5 0  9991","line2":"2 59717  53.1588  79.7422 0000873  71.4365 288.6747 15.69708549137069","mean_motion":15.69708549,"eccentricity":8.73e-5,"inclination_deg":53.1588,"raan_deg":79.7422,"arg_perigee_deg":71.4365,"mean_anomaly_deg":288.6747,"bstar":4.7397e-6,"rev_number":13706,"period_min":91.736775015806,"perigee_km":359.14268676167,"apogee_km":360.31911849747,"semimajor_km":6737.8679026296,"source":"CELESTRAK","updated_at":"2026-09-22T09:00:49.059089Z"}}